GW0821 Weather Reports


time (UTC)temp
F
wind
direction
speed
knots
gust
knots
rain 1hr
in
rain 24hr
in
rain mn
in
humidity
%
barometer
mb
20260901063056 67 0 0.0 0.0 0.00 0.00 0.00 91 1019.9
20260901061549 65 0 0.0 0.0 0.00 0.00 0.00 91 1019.9
20260901060058 65 0 0.0 0.0 0.00 0.00 0.00 91 1020.0
20260901054552 65 0 0.0 0.0 0.00 0.00 0.00 91 1020.0
20260901053058 65 0 0.0 0.0 0.00 0.00 0.00 91 1019.9
20260901051606 65 0 0.0 0.0 0.00 0.00 0.00 90 1019.7
20260901050052 65 0 0.0 0.0 0.00 0.00 0.00 90 1019.7
20260901044553 65 0 0.0 0.0 0.00 0.00 0.00 90 1019.7
20260901043049 65 0 0.0 0.0 0.00 0.00 0.00 90 1019.8
20260901041613 66 0 0.0 0.0 0.00 0.00 0.00 90 1019.8
20260901040133 66 0 0.0 0.0 0.00 0.00 0.00 89 1019.9
20260901034552 66 0 0.0 0.0 0.00 0.00 0.00 88 1019.9
20260901033049 67 0 0.0 0.0 0.00 0.00 0.00 87 1020.0
20260901031558 67 0 0.0 0.0 0.00 0.00 0.00 86 1019.9
20260901030052 68 0 0.0 0.0 0.00 0.00 0.00 86 1020.2
20260901024554 68 0 0.0 0.0 0.00 0.00 0.00 86 1020.2
20260901023055 68 0 0.0 0.0 0.00 0.00 0.00 86 1020.3
20260901021552 68 0 0.0 0.0 0.00 0.00 0.00 86 1020.7
20260901020055 68 0 0.0 0.0 0.00 0.00 0.00 86 1020.7
20260901014549 67 0 0.0 0.0 0.00 0.00 0.00 87 1020.8
20260901013101 67 0 0.0 0.0 0.00 0.00 0.00 87 1020.7
20260901011551 67 0 0.0 0.0 0.00 0.00 0.00 87 1020.7
20260901010114 67 0 0.0 0.0 0.00 0.00 0.00 86 1020.9
20260901004556 67 0 0.0 0.0 0.00 0.00 0.00 87 1020.9
20260901003049 67 0 0.0 0.0 0.00 0.00 0.00 87 1020.7
20260901001546 67 0 0.0 0.0 0.00 0.00 0.00 88 1020.9
20260901000055 67 0 0.0 0.0 0.00 0.00 0.00 87 1020.9
20260831234602 67 0 0.0 0.0 0.00 0.00 0.00 86 1020.9
20260831233049 68 0 0.0 0.0 0.00 0.00 0.00 86 1020.9
20260831231558 68 0 0.0 1.7 0.00 0.00 0.00 86 1020.8
20260831230111 68 0 0.0 0.0 0.00 0.00 0.00 86 1020.8
20260831224553 68 0 0.0 0.0 0.00 0.00 0.00 86 1020.8
20260831223107 69 0 0.0 0.0 0.00 0.00 0.00 84 1021.0
20260831221556 69 0 0.0 0.9 0.00 0.00 0.00 84 1020.7
20260831220050 70 0 0.0 0.0 0.00 0.00 0.00 85 1020.7
20260831214608 70 0 0.0 0.9 0.00 0.00 0.00 84 1020.7
20260831213051 71 0 0.0 0.9 0.00 0.00 0.00 83 1020.6
20260831211552 71 0 0.0 0.9 0.00 0.00 0.00 85 1020.5
20260831210047 72 154 0.0 1.7 0.00 0.00 0.00 84 1020.5
20260831204554 72 151 0.0 2.6 0.00 0.00 0.00 84 1020.4
20260831203055 73 0 0.0 1.7 0.00 0.00 0.00 83 1020.3
20260831201551 73 158 0.9 3.5 0.00 0.00 0.00 81 1020.2
20260831200104 73 153 0.0 2.6 0.00 0.00 0.00 77 1019.9
20260831194624 74 137 1.7 3.5 0.00 0.00 0.00 75 1019.7
20260831193050 74 148 1.7 2.6 0.00 0.00 0.00 73 1019.5
20260831191556 75 158 0.9 3.5 0.00 0.00 0.00 72 1019.2
20260831184550 76 250 0.9 5.2 0.00 0.00 0.00 69 1018.9
20260831183054 76 196 2.6 6.1 0.00 0.00 0.00 69 1018.9
20260831181557 76 174 1.7 6.1 0.00 0.00 0.00 68 1018.7
20260831180109 77 153 2.6 7.0 0.00 0.00 0.00 67 1018.6
20260831174552 77 222 2.6 7.0 0.00 0.00 0.00 65 1018.4
20260831173058 79 0 1.7 8.7 0.00 0.00 0.00 63 1018.3
20260831171553 80 141 2.6 9.6 0.00 0.00 0.00 64 1018.4
20260831170052 80 140 4.3 11.3 0.00 0.00 0.00 64 1018.5
20260831164550 81 168 2.6 9.6 0.00 0.00 0.00 67 1018.6
20260831163051 80 153 2.6 10.4 0.00 0.00 0.00 70 1018.6
20260831161552 81 174 3.5 9.6 0.00 0.00 0.00 69 1018.6
20260831160058 81 148 4.3 9.6 0.00 0.00 0.00 68 1018.5
20260831154618 83 144 5.2 12.2 0.00 0.00 0.00 66 1018.7
20260831153052 82 212 3.5 12.2 0.00 0.00 0.00 67 1018.5
20260831151615 84 129 3.5 13.0 0.00 0.00 0.00 65 1018.6
20260831150055 83 170 3.5 11.3 0.00 0.00 0.00 65 1018.5
20260831144552 85 192 5.2 12.2 0.00 0.00 0.00 63 1018.4
20260831143050 85 181 4.3 11.3 0.00 0.00 0.00 61 1018.3
20260831141548 86 220 3.5 10.4 0.00 0.00 0.00 59 1018.3
20260831140058 86 200 3.5 11.3 0.00 0.00 0.00 58 1018.3
20260831134554 86 163 3.5 10.4 0.00 0.00 0.00 55 1018.2
20260831133052 86 229 3.5 9.6 0.00 0.00 0.00 55 1018.2
20260831131608 85 231 1.7 10.4 0.00 0.00 0.00 55 1018.3
20260831130101 85 229 3.5 7.8 0.00 0.00 0.00 54 1018.4
20260831124601 85 139 5.2 8.7 0.00 0.00 0.00 53 1018.4
20260831123052 85 143 3.5 8.7 0.00 0.00 0.00 53 1018.5
20260831121556 84 134 3.5 7.8 0.00 0.00 0.00 52 1018.6
20260831120056 84 198 3.5 8.7 0.00 0.00 0.00 52 1018.8
20260831114551 83 141 2.6 11.3 0.00 0.00 0.00 53 1018.8
20260831113103 83 200 2.6 8.7 0.00 0.00 0.00 53 1018.9
20260831111555 82 162 4.3 9.6 0.00 0.00 0.00 54 1018.9
20260831110056 81 182 2.6 8.7 0.00 0.00 0.00 54 1019.2
20260831104611 80 219 2.6 9.6 0.00 0.00 0.00 57 1019.2
20260831103054 80 141 6.1 10.4 0.00 0.00 0.00 57 1019.2
20260831101552 80 182 3.5 8.7 0.00 0.00 0.00 56 1019.3
20260831100108 80 212 1.7 7.0 0.00 0.00 0.00 58 1019.4
20260831094550 80 165 2.6 9.6 0.00 0.00 0.00 59 1019.4
20260831093050 79 194 4.3 8.7 0.00 0.00 0.00 61 1019.5
20260831091554 79 148 3.5 7.8 0.00 0.00 0.00 60 1019.3
20260831090051 79 222 1.7 7.0 0.00 0.00 0.00 56 1019.2
20260831084601 78 148 2.6 7.8 0.00 0.00 0.00 51 1019.1
20260831083054 77 205 2.6 5.2 0.00 0.00 0.00 53 1019.0
20260831081553 74 113 0.0 1.7 0.00 0.00 0.00 58 1018.9
20260831080056 72 221 0.0 0.9 0.00 0.00 0.00 61 1018.7
20260831074557 71 0 0.0 1.7 0.00 0.00 0.00 63 1018.7
20260831073103 69 0 0.0 0.9 0.00 0.00 0.00 65 1018.7
20260831071549 68 0 0.0 0.0 0.00 0.00 0.00 65 1018.7
20260831070050 65 0 0.0 0.9 0.00 0.00 0.00 69 1018.8
20260831064554 63 0 0.0 0.0 0.00 0.00 0.00 72 1018.7